Hourly Weather Bolshoe Kobyakovo

Today, 25 July, Sunday

Time Temperature Precipitation Wind Pressure Humidity
00:00 +14°C° 0 mm 1 mps 745 mmHg 64%
01:00 +14°C° 0 mm 2 mps 746 mmHg 63%
02:00 +14°C° 0 mm 2 mps 746 mmHg 62%
03:00 +14°C° 0 mm 1 mps 746 mmHg 63%
04:00 +14°C° 0 mm 1 mps 746 mmHg 63%
05:00 +14°C° 0 mm 1 mps 746 mmHg 64%
06:00 +15°C° 0 mm 1 mps 747 mmHg 62%
07:00 +16°C° 0 mm 1 mps 747 mmHg 59%
08:00 +18°C° 0 mm 1 mps 747 mmHg 57%
09:00 +20°C° 0 mm 1 mps 747 mmHg 51%
10:00 +22°C° 0 mm 1 mps 747 mmHg 46%
11:00 +23°C° 0 mm 1 mps 747 mmHg 40%
12:00 +24°C° 0 mm 2 mps 747 mmHg 40%
13:00 +24°C° 0 mm 2 mps 747 mmHg 40%
14:00 +24°C° 0 mm 2 mps 747 mmHg 40%
15:00 +24°C° 0 mm 2 mps 747 mmHg 45%
16:00 +23°C° 0 mm 2 mps 747 mmHg 50%
17:00 +23°C° 0 mm 2 mps 747 mmHg 55%
18:00 +21°C° 0 mm 2 mps 747 mmHg 58%
19:00 +20°C° 0 mm 2 mps 747 mmHg 60%
20:00 +20°C° 0 mm 1 mps 747 mmHg 63%
21:00 +19°C° 0 mm 2 mps 748 mmHg 62%
22:00 +19°C° 0 mm 2 mps 748 mmHg 61%
23:00 +18°C° 0 mm 2 mps 748 mmHg 60%

Tomorrow, 26 July, Monday

Time Temperature Precipitation Wind Pressure Humidity
00:00 +19°C° 0 mm 1 mps 748 mmHg 60%
01:00 +19°C° 0 mm 1 mps 748 mmHg 60%
02:00 +19°C° 0 mm 1 mps 748 mmHg 60%
03:00 +18°C° 0 mm 1 mps 748 mmHg 62%
04:00 +18°C° 0 mm 1 mps 748 mmHg 64%
05:00 +17°C° 0 mm 2 mps 748 mmHg 66%
06:00 +18°C° 0 mm 2 mps 749 mmHg 65%
07:00 +20°C° 0 mm 1 mps 749 mmHg 64%
08:00 +21°C° 0 mm 1 mps 749 mmHg 63%
09:00 +22°C° 0 mm 1 mps 749 mmHg 60%
10:00 +23°C° 0 mm 1 mps 749 mmHg 57%
11:00 +24°C° 0 mm 1 mps 749 mmHg 53%
12:00 +24°C° 0 mm 2 mps 749 mmHg 52%
13:00 +25°C° 0 mm 2 mps 749 mmHg 51%
14:00 +25°C° 0 mm 2 mps 749 mmHg 49%
15:00 +25°C° 0 mm 2 mps 749 mmHg 50%
16:00 +25°C° 0 mm 2 mps 749 mmHg 51%
17:00 +25°C° 0 mm 1 mps 748 mmHg 51%
18:00 +24°C° 0 mm 1 mps 748 mmHg 58%
19:00 +22°C° 0 mm 1 mps 748 mmHg 65%
20:00 +19°C° 0 mm 2 mps 749 mmHg 71%
21:00 +18°C° 0 mm 2 mps 749 mmHg 75%
22:00 +18°C° 0 mm 2 mps 749 mmHg 79%
23:00 +18°C° 0 mm 1 mps 749 mmHg 82%

Day after tomorrow, 27 July, Tuesday

Time Temperature Precipitation Wind Pressure Humidity
00:00 +18°C° 0 mm 1 mps 749 mmHg 83%
01:00 +16°C° 0 mm 1 mps 749 mmHg 84%
02:00 +16°C° 0 mm 1 mps 749 mmHg 85%
03:00 +16°C° 0 mm 1 mps 749 mmHg 84%
04:00 +16°C° 0 mm 1 mps 749 mmHg 83%
05:00 +18°C° 0 mm 1 mps 749 mmHg 83%
06:00 +20°C° 0 mm 1 mps 749 mmHg 74%
07:00 +22°C° 0 mm 1 mps 749 mmHg 64%
08:00 +25°C° 0 mm 1 mps 749 mmHg 55%
09:00 +26°C° 0 mm 1 mps 749 mmHg 49%
10:00 +28°C° 0 mm 1 mps 749 mmHg 43%
11:00 +29°C° 0 mm 1 mps 749 mmHg 37%
12:00 +29°C° 0 mm 1 mps 748 mmHg 38%
13:00 +29°C° 0 mm 1 mps 748 mmHg 38%
14:00 +29°C° 0 mm 1 mps 748 mmHg 38%
15:00 +28°C° 0 mm 1 mps 748 mmHg 42%
16:00 +28°C° 0 mm 2 mps 748 mmHg 46%
17:00 +27°C° 0 mm 2 mps 747 mmHg 49%
18:00 +25°C° 0 mm 2 mps 747 mmHg 57%
19:00 +23°C° 0 mm 2 mps 747 mmHg 65%
20:00 +21°C° 0 mm 1 mps 747 mmHg 72%
21:00 +20°C° 0 mm 1 mps 747 mmHg 75%
22:00 +19°C° 0 mm 1 mps 747 mmHg 78%
23:00 +18°C° 0 mm 2 mps 747 mmHg 81%

28 July, Wednesday

Time Temperature Precipitation Wind Pressure Humidity
00:00 +18°C° 0 mm 1 mps 747 mmHg 82%
01:00 +18°C° 0 mm 1 mps 746 mmHg 83%
02:00 +18°C° 0 mm 1 mps 746 mmHg 84%
03:00 +18°C° 0 mm 1 mps 746 mmHg 83%
04:00 +18°C° 0 mm 2 mps 746 mmHg 82%
05:00 +18°C° 0 mm 2 mps 746 mmHg 81%
06:00 +20°C° 0 mm 2 mps 745 mmHg 73%
07:00 +23°C° 0 mm 2 mps 745 mmHg 66%
08:00 +25°C° 0 mm 3 mps 745 mmHg 58%
09:00 +26°C° 0 mm 3 mps 745 mmHg 54%
10:00 +27°C° 0 mm 3 mps 744 mmHg 50%
11:00 +29°C° 0 mm 4 mps 744 mmHg 46%
12:00 +28°C° 0 mm 3 mps 744 mmHg 47%
13:00 +28°C° 0 mm 3 mps 743 mmHg 47%
14:00 +28°C° 0 mm 3 mps 743 mmHg 48%
15:00 +27°C° 0 mm 3 mps 743 mmHg 51%
16:00 +27°C° 0 mm 3 mps 742 mmHg 54%
17:00 +27°C° 0 mm 4 mps 742 mmHg 56%
18:00 +24°C° 0.1 mm 3 mps 742 mmHg 65%
19:00 +21°C° 0.1 mm 3 mps 741 mmHg 74%
20:00 +19°C° 0.1 mm 3 mps 741 mmHg 83%
21:00 +18°C° 0 mm 3 mps 741 mmHg 87%
22:00 +18°C° 0 mm 2 mps 741 mmHg 90%
23:00 +17°C° 0 mm 2 mps 741 mmHg 94%

29 July, Thursday

Time Temperature Precipitation Wind Pressure Humidity
00:00 +17°C° 0 mm 2 mps 740 mmHg 95%
01:00 +16°C° 0 mm 2 mps 740 mmHg 96%
02:00 +16°C° 0 mm 2 mps 739 mmHg 97%
03:00 +16°C° 0 mm 2 mps 739 mmHg 96%
04:00 +16°C° 0 mm 2 mps 739 mmHg 95%
05:00 +17°C° 0 mm 2 mps 739 mmHg 94%
06:00 +17°C° 0 mm 2 mps 739 mmHg 91%
07:00 +18°C° 0 mm 2 mps 739 mmHg 87%
08:00 +19°C° 0 mm 2 mps 738 mmHg 84%
09:00 +19°C° 0.1 mm 2 mps 738 mmHg 83%
10:00 +20°C° 0.1 mm 2 mps 738 mmHg 82%
11:00 +20°C° 0.1 mm 2 mps 738 mmHg 81%
12:00 +21°C° 0.2 mm 2 mps 738 mmHg 81%
13:00 +23°C° 0.2 mm 2 mps 738 mmHg 80%
14:00 +23°C° 0.2 mm 2 mps 738 mmHg 79%
15:00 +23°C° 0.4 mm 2 mps 737 mmHg 80%
16:00 +23°C° 0.4 mm 2 mps 737 mmHg 81%
17:00 +23°C° 0.4 mm 2 mps 737 mmHg 82%
18:00 +21°C° 0.9 mm 2 mps 737 mmHg 86%
19:00 +20°C° 0.9 mm 2 mps 737 mmHg 90%
20:00 +19°C° 0.9 mm 2 mps 737 mmHg 94%
21:00 +19°C° 0.1 mm 2 mps 737 mmHg 94%
22:00 +18°C° 0.1 mm 3 mps 737 mmHg 95%
23:00 +18°C° 0.1 mm 3 mps 737 mmHg 96%

30 July, Friday

Time Temperature Precipitation Wind Pressure Humidity
00:00 +18°C° 0 mm 3 mps 737 mmHg 96%
01:00 +17°C° 0 mm 3 mps 737 mmHg 97%
02:00 +17°C° 0 mm 3 mps 737 mmHg 97%
03:00 +17°C° 0 mm 3 mps 737 mmHg 97%
04:00 +17°C° 0 mm 3 mps 737 mmHg 97%
05:00 +16°C° 0 mm 3 mps 737 mmHg 97%
06:00 +18°C° 0 mm 4 mps 738 mmHg 90%
07:00 +19°C° 0 mm 4 mps 738 mmHg 82%
08:00 +21°C° 0 mm 4 mps 738 mmHg 75%
09:00 +22°C° 0 mm 5 mps 738 mmHg 65%
10:00 +25°C° 0 mm 5 mps 738 mmHg 55%
11:00 +26°C° 0 mm 5 mps 738 mmHg 44%
12:00 +26°C° 0 mm 6 mps 738 mmHg 41%
13:00 +27°C° 0 mm 6 mps 738 mmHg 38%
14:00 +28°C° 0 mm 6 mps 738 mmHg 35%
15:00 +27°C° 0 mm 5 mps 738 mmHg 37%
16:00 +27°C° 0 mm 5 mps 738 mmHg 39%
17:00 +26°C° 0 mm 4 mps 738 mmHg 41%
18:00 +25°C° 0 mm 3 mps 739 mmHg 47%
19:00 +22°C° 0 mm 3 mps 739 mmHg 53%
20:00 +20°C° 0 mm 2 mps 739 mmHg 58%
21:00 +19°C° 0 mm 2 mps 739 mmHg 62%
22:00 +18°C° 0 mm 2 mps 740 mmHg 66%
23:00 +17°C° 0 mm 2 mps 740 mmHg 69%
Show more

We Need Your Consent

Meteoprog and our Service Providers may store and access personal data such as cookies, device identifiers or other similar technologies on your device and process such data to personalise content and ads, as well as provide social media features and to analyse the traffic.

  • Store and/or access information on your device

    Cookies, device identifiers or other information can be stored or accessed on your device for the purposes indicated above.

  • Personalised ads and content, ad and content measurement, audience insights, and products development

    Ads and content can be personalised based on a profile. More data can be added to better personalise ads and content. Ad and content performance can be measured. Insights about the audience who saw the ads and content can be derived. Such data can be used to develop or improve user’s experience, systems and software.

By clicking ‘I Agree’ you will allow the use of indicated cookies, device identifiers, web beacons or other similar technologies. Your settings can be changed in the browser on your device.

For certain purposes, legitimate interests may be relied on, rather than consent. You can read more about this in our Privacy and Cookie Policy.